AMC-15

Last updated on Mon Sep 21 2026 00:02:57 GMT+0000 (Coordinated Universal Time)

1 28446U 04041A 26263.54164823 -.00000093 00000+0 00000+0 0 9996 2 28446 0.0166 278.8070 0001980 240.5416 290.0464 1.00272538 80259
UTC large
Height (km)
Speed (km/s)
/
Latitude / Longitude
Inclination (degrees)
Orbital Period (minutes)
Azimuth
Elevation
Range (km)
Doppler Factor

Next 0 passes for location: London (51.5072 / 0.1276)

No passes found over London.
AMC-15